Location: Earls Croome
(52.0667°N, 2.2000°W)
Time: 23:16:35
(UTC+00:00)

Cosmos 2322 Rocket - Pass Details

Date: 17 November 2019
Orbit: 832 x 851 km, 71.0° (Epoch: 10 December)

Event Time Altitude Azimuth Distance (km) Brightness Sun altitude
Exits shadow 05:01:02 30° 331° (NNW) 1,491 3.2 -22.8°
Maximum altitude 05:04:02 88° 59° (ENE) 852 2.1 -22.4°
Drops below altitude 10° 05:09:43 10° 150° (SSE) 2,466 5.0 -21.5°
Sets 05:12:09 0° 151° (SSE) 3,400 5.8 -21.1°
